Regional Weather Roundup
Issued by NWS

Home | Current Version | Previous Version | Text Only | Print | Product List | Glossary Off
Versions: 1 2 3 4 5 6 7 8 9 10 11 12 13 14 15 16 17 18 19 20 21 22 23 24 25 26 27 28 29 30 31 32 33 34 35 36 37 38 39 40 41 42 43 44 45 46 47 48 49 50

000
ASUS43 KOAX 290110
RWRNE

WEATHER ROUNDUP FOR NEBRASKA
NATIONAL WEATHER SERVICE OMAHA NE
800 PM CDT FRI AUG 28 2015

NOTES: SATELLITE DATA IS BEING USED TO AUGMENT CLOUD COVER ABOVE
       12000 FEET.
       "FAIR" INDICATES FEW OR NO CLOUDS BELOW 12,000 FEET WITH NO
       SIGNIFICANT WEATHER AND/OR OBSTRUCTIONS TO VISIBILITY.

  * THESE STATIONS DO NOT REPORT WEATHER SUCH AS RAIN...SNOW OR FOG.

NEZ001>004-019>022-054>056-290200-
NEBRASKA PANHANDLE

CITY           SKY/WX    TMP DP  RH WIND       PRES   REMARKS
SCOTTSBLUFF    CLEAR     79  54  41 CALM      30.10S HAZE
ALLIANCE       CLEAR     78  50  37 CALM      30.09S
CHADRON        CLEAR     79  56  45 SE6       30.04S HAZE
KIMBALL        CLEAR     74  46  36 NE5       30.17R
SIDNEY         CLEAR     79  44  28 NE8       30.14R
$$

NEZ057>060-069>072-079>082-290200-
SOUTHWEST NEBRASKA

CITY           SKY/WX    TMP DP  RH WIND       PRES   REMARKS
NORTH PLATTE   CLEAR     73  61  65 NE5       30.04R
IMPERIAL       CLEAR     79  56  45 NE6       30.06R
LEXINGTON      CLEAR     72  63  72 NE5       30.01S
MCCOOK         CLEAR     79  62  56 NE10      30.01R
OGALLALA       CLEAR     79  54  40 NE6       30.06R
$$

NEZ005>010-023>029-035>040-094-290200-
NORTH CENTRAL NEBRASKA

CITY           SKY/WX    TMP DP  RH WIND       PRES   REMARKS
VALENTINE      CLEAR     76  62  62 SE5       30.02S
AINSWORTH      CLEAR     71  65  82 CALM      30.04R
BROKEN BOW     CLEAR     72  63  73 N5        30.02S
O`NEILL        CLEAR     70  65  85 N6        30.00S
ORD            CLEAR     69  63  81 N5        29.98S
THEDFORD       CLEAR     74  64  69 NE3       30.05S
$$

NEZ041-046>049-061>064-073>077-083>087-290200-
SOUTH CENTRAL NEBRASKA

CITY           SKY/WX    TMP DP  RH WIND       PRES   REMARKS
GRAND ISLAND   MOCLDY    72  62  71 N7        29.98S
AURORA         CLOUDY    71  65  83 N5        29.97R
HASTINGS       CLEAR     70  63  78 N3        29.98R
HEBRON         CLOUDY    73  62  69 N7        29.95R
HOLDREGE       CLEAR     70  61  72 NE7       30.00S
KEARNEY *      CLEAR     70  59  68 N6        30.00R
YORK           CLOUDY    70  66  88 CALM      29.96R
$$

NEZ011>018-030>034-042>045-290200-
NORTHEAST NEBRASKA

CITY           SKY/WX    TMP DP  RH WIND       PRES   REMARKS
NORFOLK        CLEAR     69  63  81 N12       29.95R
ALBION         CLEAR     70  63  77 N7        29.97S
BLAIR          DRIZZLE   65  62  93 N8        29.91R
COLUMBUS *     PTCLDY   N/A N/A N/A N5        29.94R
FREMONT        CLOUDY    67  60  78 N9        29.93R
TEKAMAH        CLOUDY    65  63  93 N13G20    29.91R
WAYNE          MOCLDY    65  61  86 NE12      29.97R
$$

NEZ050>053-065>068-078-088>093-290200-
SOUTHEAST NEBRASKA

CITY           SKY/WX    TMP DP  RH WIND       PRES   REMARKS
LINCOLN        CLOUDY    72  63  73 N13       29.93R
OMAHA EPPLEY   CLOUDY    67  65  93 NW15      29.89R FOG
BEATRICE       CLOUDY    71  65  80 N8        29.93R
FALLS CITY     CLOUDY    73  71  93 N5        29.89R
NEBRASKA CITY  CLEAR     70  62  76 NW8       29.89R
PLATTSMOUTH    CLOUDY    69  63  80 NW15      29.89R
$$

NEZ044-045-051>053-067-290200-
OMAHA AREA

CITY           SKY/WX    TMP DP  RH WIND       PRES   REMARKS
OMAHA EPPLEY   CLOUDY    67  65  93 NW15      29.89R FOG
BLAIR          DRIZZLE   65  62  93 N8        29.91R
FREMONT        CLOUDY    67  60  78 N9        29.93R
MILLARD        CLOUDY    68  65  88 NW9       29.90R
OFFUTT AFB     MOCLDY    68  65  89 NW10      29.89R
PLATTSMOUTH    CLOUDY    69  63  80 NW15      29.89R
WAHOO          CLOUDY    68  63  83 N10       29.92S
$$



USA.gov is the U.S. government's official web portal to all federal, state and local government web resources and services.